Track COSMOS 521 now! 10-day predictions COSMOS 521 is classified as:
1 06206U 72074A 24325.77833986 -.00000041 00000-0 42966-4 0 9998 2 06206 65.8280 253.8858 0016851 311.9385 67.9190 13.72490227612924